Wind_Speed
96 97 98 100 103 106 109 112 116 120 122 124 125 126 127 127 126 124 121 117 113 109 106 102 100 98 96 94 93 92 91 90 90 89 88 88 88 88 89 90 91 93 94 96 98 100 102 104 106 108 111 113 115 117 118 119 120 120 121 121 121 121 121 120 118 117 120 127 130 130 133 135 136 137 138 138 138 139 139 139 138 135 133 130 129
97 98 101 103 107 110 114 117 121 124 126 127 128 129 128 127 125 123 119 115 110 106 103 100 98 96 95 94 93 92 91 91 90 89 89 89 88 88 89 90 91 92 93 94 96 97 99 100 102 104 106 108 110 112 114 116 118 118 119 119 119 119 119 118 116 114 115 121 127 128 128 131 133 135 137 138 138 139 140 140 140 140 138 135 132
99 101 104 108 112 116 120 123 126 127 129 129 130 129 128 126 124 121 116 112 107 104 101 99 97 96 95 94 93 92 91 91 90 89 89 88 89 89 89 90 91 92 93 94 95 96 97 99 100 101 103 104 106 108 109 111 113 115 116 117 118 118 118 117 115 113 113 115 121 125 125 126 127 129 133 136 137 137 139 140 141 141 141 140 138
101 104 108 112 118 123 126 128 129 130 131 131 131 129 127 125 122 118 113 109 106 103 101 99 97 96 95 94 93 93 92 91 90 89 88 88 88 89 90 90 91 92 93 94 95 96 97 98 99 100 101 103 104 106 107 108 109 111 112 114 115 115 115 115 114 112 110 110 115 121 123 122 123 124 126 130 134 135 137 138 139 140 141 141 141
104 107 112 117 123 128 130 131 132 133 133 132 131 129 127 124 120 115 111 108 105 102 100 99 97 96 95 94 93 93 92 90 89 89 88 88 89 89 90 91 91 92 93 94 95 96 97 98 99 100 101 102 103 104 106 107 108 108 109 110 111 112 112 113 112 110 108 107 108 113 118 118 118 119 121 124 128 131 134 136 137 137 138 139 140
108 113 118 124 128 132 133 134 134 135 134 133 131 129 126 122 117 113 110 107 104 102 101 99 97 96 95 94 93 92 91 90 89 89 89 89 90 90 90 91 91 92 93 94 95 95 96 97 98 99 100 101 102 103 104 105 106 107 108 108 109 109 110 110 110 109 107 106 105 107 111 113 113 113 116 119 121 124 127 131 134 135 135 136 137
115 120 125 129 132 134 135 136 137 137 136 134 131 128 124 120 115 112 109 106 104 102 101 99 97 95 93 92 92 91 91 90 89 89 89 90 90 90 91 91 92 93 93 94 94 95 95 96 97 98 99 100 101 102 102 103 104 105 105 106 106 106 107 107 107 107 106 106 105 105 106 108 109 109 111 113 115 117 119 123 126 130 132 133 134
122 126 130 133 135 136 137 138 139 139 137 135 132 127 122 118 114 110 107 105 104 102 100 98 96 94 92 91 91 90 90 89 89 89 89 90 90 90 91 92 92 93 93 94 94 94 94 94 95 96 96 97 98 99 99 100 100 101 102 103 103 103 104 104 105 105 105 105 104 104 103 104 105 106 107 109 110 111 112 115 118 122 127 130 131
128 131 134 137 138 138 139 140 140 139 137 135 130 125 120 115 112 109 106 105 103 101 99 97 95 93 91 90 90 89 89 88 88 88 89 89 89 90 91 91 92 93 93 94 94 94 94 93 93 94 94 95 95 95 96 96 96 97 98 99 100 100 101 101 101 102 103 103 103 103 102 102 103 104 104 105 106 106 108 110 111 114 119 123 126
133 136 138 139 140 141 142 141 140 139 137 133 128 123 118 114 110 108 105 104 102 100 98 96 94 93 91 90 89 88 88 87 87 87 87 88 88 89 90 91 92 93 93 94 94 94 94 93 93 93 93 93 93 93 93 92 92 93 93 94 95 96 97 97 98 98 99 100 100 100 100 100 101 102 102 102 103 103 104 106 107 109 112 115 119
138 140 141 142 143 144 143 142 141 138 135 130 125 120 116 112 109 107 104 102 100 98 97 95 94 92 91 90 88 87 86 85 85 85 85 86 86 87 88 89 90 91 92 92 93 93 93 93 93 93 93 93 93 92 91 91 90 90 90 91 91 92 93 93 94 94 95 95 95 96 97 97 98 99 99 100 101 102 102 103 104 106 108 110 112
142 143 144 146 146 146 145 143 140 137 133 128 123 118 115 111 109 106 104 101 99 97 96 94 92 91 89 88 87 86 85 84 84 83 83 83 84 84 86 87 88 88 89 90 90 91 92 92 92 92 92 93 93 92 92 91 91 90 90 90 90 91 91 91 91 92 92 92 92 92 93 93 94 95 96 97 99 100 101 101 101 102 104 106 107
145 146 148 149 149 148 145 142 139 135 130 125 121 117 114 111 109 106 103 100 98 96 94 92 90 89 87 86 85 85 84 83 82 82 81 81 82 82 83 84 84 85 86 87 88 89 89 90 90 91 91 92 92 92 92 91 91 91 90 90 91 91 91 91 91 91 90 90 90 90 90 90 90 92 93 94 96 98 98 98 98 99 100 102 104
148 150 152 152 151 148 145 141 137 133 128 124 120 117 114 111 108 105 102 100 98 95 93 91 89 88 87 86 85 84 83 82 81 80 80 80 80 80 80 81 81 82 82 83 84 85 86 87 87 88 89 90 91 91 91 90 89 90 90 91 92 92 92 92 92 91 90 89 89 89 90 90 90 90 92 93 93 94 95 95 95 96 97 98 100
152 154 155 154 152 149 145 141 136 131 127 123 120 117 114 110 107 104 102 100 98 95 93 91 89 88 87 86 85 83 82 81 80 79 79 78 78 79 79 79 79 80 80 81 82 82 83 84 84 85 86 87 89 89 88 88 87 87 88 90 91 92 92 93 92 91 90 89 88 88 89 90 90 91 91 92 92 92 92 92 92 93 93 94 97
155 156 156 155 152 149 144 139 133 128 125 122 119 116 113 110 107 105 102 100 97 95 93 91 90 89 87 86 85 84 82 81 80 79 78 78 78 78 78 78 79 79 80 80 81 82 82 83 83 83 84 85 86 87 87 85 84 85 86 88 89 90 92 92 92 90 90 89 88 87 87 89 90 90 90 91 91 92 91 90 90 91 90 91 93
158 158 156 154 152 147 141 135 130 127 124 121 118 116 113 110 107 104 102 99 97 95 93 92 90 89 88 87 85 84 82 81 80 79 79 78 78 78 78 78 79 79 79 80 80 81 81 81 81 81 82 83 84 85 85 83 82 82 83 85 87 89 91 91 90 90 89 89 87 86 87 88 88 88 89 89 90 90 89 89 89 89 88 89 91
159 158 156 154 150 143 137 132 129 126 124 121 118 115 112 110 107 103 101 98 96 94 93 91 90 89 88 86 85 83 82 81 80 80 79 78 78 78 78 78 78 78 78 78 79 79 79 78 79 79 79 80 81 82 82 81 80 80 81 82 84 86 88 89 88 88 88 88 87 87 86 87 87 87 87 88 88 88 87 87 88 87 87 88 91
159 158 156 152 146 139 134 131 128 125 123 120 117 114 111 108 105 102 99 97 95 93 92 90 89 88 87 86 84 82 81 80 80 79 79 78 78 77 77 77 77 77 77 77 77 76 76 76 76 77 77 78 79 79 80 79 78 77 78 79 81 83 84 85 86 86 87 86 86 86 86 86 86 86 86 87 86 86 85 84 85 85 85 87 90
160 158 154 148 141 135 132 129 126 124 121 118 115 112 108 105 102 99 97 95 94 92 91 89 88 87 86 85 83 82 80 80 79 79 78 78 77 77 77 77 77 77 76 76 75 75 75 75 75 76 76 76 76 77 78 78 78 76 76 77 78 80 81 82 83 84 84 84 85 85 85 85 85 85 85 86 86 86 84 82 81 81 83 85 88
159 155 148 141 136 132 129 127 124 122 119 115 112 109 105 102 100 98 96 94 92 91 90 88 87 86 85 84 82 81 80 79 79 79 78 78 77 76 77 77 77 76 75 74 74 74 74 74 74 75 75 75 76 76 77 78 77 76 75 75 76 77 78 79 81 82 82 82 83 84 84 84 84 83 83 84 85 85 84 82 80 80 81 83 85
155 148 141 135 132 129 126 124 121 119 115 112 109 105 102 100 98 96 94 93 91 90 89 87 86 85 84 83 82 81 80 79 79 79 78 77 77 76 77 77 76 74 73 73 73 73 73 73 73 74 74 74 75 76 76 76 75 74 74 73 73 73 74 75 77 79 80 80 80 81 82 82 82 82 82 82 82 82 82 82 81 80 80 82 83
147 140 135 132 129 126 124 121 118 115 112 108 105 102 100 98 96 95 93 92 91 90 88 87 86 85 84 83 82 81 80 80 79 79 78 77 77 77 76 76 75 73 71 71 71 72 72 72 72 72 72 73 74 75 75 74 74 73 72 72 71 71 71 72 74 76 77 78 79 79 80 80 80 80 80 80 80 80 80 80 80 79 80 81 82
140 136 132 129 126 124 121 118 115 112 108 105 102 100 98 96 95 93 92 91 90 89 88 87 86 85 84 83 83 82 82 81 80 79 78 77 77 77 76 75 74 72 70 69 70 71 71 71 71 71 71 73 74 74 74 73 72 71 71 70 70 70 70 70 72 73 75 76 77 77 78 79 78 78 78 78 78 78 78 78 77 78 78 80 81
137 133 130 127 124 122 118 115 112 108 105 102 100 98 97 95 94 93 92 91 89 88 88 87 87 86 84 84 83 83 82 82 80 79 78 77 77 77 76 75 74 72 70 69 69 70 70 70 69 69 70 71 72 73 73 73 72 70 70 69 69 69 69 69 70 71 73 74 75 75 76 77 77 77 77 76 76 76 76 75 75 75 76 77 79
134 131 128 125 122 119 115 112 108 106 103 100 98 97 96 94 93 92 91 90 89 88 87 87 86 86 85 84 84 83 83 82 80 79 77 77 76 76 76 76 75 73 71 70 70 70 70 69 68 68 68 69 70 71 72 72 72 71 69 68 68 68 68 69 69 70 71 72 73 73 73 73 74 74 75 75 74 74 74 73 73 74 74 75 77
131 129 126 123 119 115 112 109 106 103 101 99 97 96 95 94 93 92 91 89 88 88 87 87 86 85 84 84 84 83 83 81 79 78 77 76 75 76 76 76 75 73 72 71 70 70 69 68 68 67 66 66 67 69 70 71 71 71 70 68 67 67 67 68 69 70 70 70 71 71 71 71 71 71 72 72 72 73 72 71 71 72 73 73 74
129 127 124 120 116 113 109 107 104 102 99 98 97 96 95 94 93 91 90 89 88 87 87 86 85 85 84 84 83 83 82 80 79 77 76 75 75 75 75 75 73 72 72 71 70 69 68 68 67 66 65 65 65 66 67 68 69 69 69 69 68 67 67 67 68 68 69 69 69 69 70 70 69 69 69 69 70 70 70 70 70 70 71 72 72
127 124 120 117 114 110 107 104 102 99 98 96 95 95 94 93 92 91 89 88 88 87 86 85 85 84 83 83 82 81 80 79 78 76 75 75 75 75 75 73 71 70 70 70 69 68 67 67 66 65 64 64 64 64 65 65 66 66 66 67 67 67 66 66 66 67 67 67 67 67 67 67 67 68 68 68 68 68 68 68 68 69 70 71 71
124 120 117 114 111 108 104 101 99 97 95 94 93 93 92 91 90 89 88 87 87 86 86 85 84 83 82 81 80 79 78 78 77 76 75 75 76 76 75 72 70 68 68 68 67 66 66 66 65 65 64 64 63 63 63 63 63 63 63 63 63 64 65 64 65 65 65 65 64 64 64 65 65 66 66 66 66 67 67 67 67 67 69 70 70
121 117 114 111 108 105 102 99 97 95 93 92 91 91 90 89 88 87 86 86 85 85 85 84 83 81 79 78 78 77 76 76 75 74 74 74 76 77 75 72 70 68 67 66 66 65 64 64 64 64 64 64 63 63 62 61 61 61 60 60 60 61 62 62 63 63 63 63 62 62 61 62 63 64 64 65 65 66 66 66 66 66 67 68 69
117 114 111 107 104 102 99 98 96 93 91 90 89 89 88 87 86 85 85 84 84 84 83 82 80 79 77 76 75 75 74 74 74 73 72 72 74 76 75 72 70 68 67 66 65 64 63 63 63 64 64 63 63 62 61 61 60 60 59 59 58 58 58 59 59 60 61 61 61 60 60 60 61 62 64 64 65 66 66 65 65 65 65 65 66
113 110 107 104 102 99 97 96 94 92 91 89 88 87 86 85 84 84 83 83 82 82 82 81 79 77 76 75 74 73 73 72 72 72 71 72 73 75 74 72 70 69 68 67 66 64 63 62 62 63 63 62 62 61 60 60 59 59 58 58 57 57 56 56 56 56 57 58 59 59 58 59 59 61 62 64 65 65 65 65 64 63 62 62 62
109 106 103 101 99 97 95 93 92 91 89 88 86 85 84 83 82 82 83 82 82 80 79 79 78 77 75 74 73 72 72 71 70 70 70 71 73 73 72 71 70 69 68 67 66 65 63 62 62 62 62 61 60 60 59 59 58 58 57 56 56 56 55 54 54 54 54 55 56 57 57 58 59 60 61 63 63 64 64 64 63 62 61 61 60
105 102 99 97 95 93 91 90 89 88 87 86 85 84 83 82 81 81 81 82 81 80 79 77 76 75 74 74 73 72 71 70 69 68 68 69 72 72 71 71 70 68 67 67 66 64 63 62 61 60 60 60 59 59 58 58 57 57 56 55 55 54 54 53 53 52 53 53 53 54 55 57 58 59 60 61 61 61 62 62 62 62 61 61 60
102 99 96 93 91 89 88 87 86 86 85 85 84 83 82 81 80 80 79 79 79 79 79 78 75 74 73 72 72 72 71 69 67 67 67 68 70 71 70 70 69 67 65 65 64 63 62 61 60 59 59 59 58 57 57 57 56 56 55 54 54 53 52 52 52 52 52 52 52 53 53 55 56 57 58 59 59 59 59 60 60 60 60 60 60
99 95 92 90 87 86 85 84 84 83 83 82 82 82 81 80 79 78 78 77 77 78 78 78 77 75 72 70 70 71 71 69 68 66 66 67 69 69 70 70 69 66 64 63 63 62 61 61 60 59 58 58 57 57 56 56 55 54 53 53 52 52 51 51 51 52 52 52 52 52 52 53 54 55 56 57 57 57 58 58 58 59 59 58 59
96 93 90 87 85 84 83 82 81 81 81 80 80 80 79 79 78 77 76 76 76 77 77 77 77 76 73 70 69 69 69 69 68 67 66 66 67 68 69 69 68 65 64 62 61 60 60 59 59 58 58 58 57 56 55 55 54 53 52 51 50 50 50 50 51 51 51 51 51 51 51 52 52 53 54 55 55 55 55 56 56 57 58 58 57
93 91 89 87 84 83 81 80 79 79 79 79 78 78 78 77 77 76 76 76 76 76 76 76 76 76 74 72 70 69 68 68 68 67 67 66 65 66 68 69 67 65 63 61 60 59 58 58 58 58 57 57 57 56 55 54 53 52 52 51 49 49 49 50 50 50 50 50 50 50 51 51 51 51 51 52 53 53 54 54 54 54 56 56 56
91 89 87 86 84 82 80 79 78 78 77 77 77 77 76 76 76 76 76 75 76 75 75 75 75 74 73 72 71 69 67 66 66 66 67 66 64 65 66 67 66 65 63 61 59 58 57 56 56 57 57 57 56 55 54 53 52 51 50 49 49 48 48 49 49 48 48 49 49 49 50 50 50 49 49 49 50 51 51 52 51 52 53 54 55
89 87 86 84 82 81 79 79 78 78 77 77 76 76 76 76 76 76 76 75 75 75 75 74 74 73 72 71 70 69 67 66 65 65 65 65 64 64 65 65 65 64 62 61 59 58 56 56 56 56 56 56 55 54 52 51 51 50 49 48 48 47 47 48 47 47 46 47 48 48 49 49 49 49 48 47 48 48 49 49 49 49 50 52 53
87 86 84 83 81 80 79 79 79 78 78 77 77 77 77 77 76 76 76 75 75 74 74 74 73 72 71 70 69 68 67 66 66 65 64 63 63 64 64 63 63 62 62 60 59 57 56 56 55 55 55 55 53 52 51 50 50 49 48 47 47 47 46 46 46 45 45 45 46 47 48 47 47 47 46 46 46 46 46 46 47 47 49 50 51
86 84 83 82 81 80 79 79 79 78 78 78 77 77 77 77 76 76 75 75 74 74 73 73 72 71 70 69 68 68 67 67 66 65 63 62 62 62 63 62 62 61 61 60 58 57 56 55 55 55 54 53 52 51 50 49 49 48 47 46 46 46 46 45 44 43 43 44 45 46 47 46 46 45 44 45 45 45 45 45 45 46 47 48 49
84 83 82 81 80 79 79 79 78 78 78 78 78 78 77 77 76 75 74 74 73 73 73 72 72 71 70 68 68 68 67 67 66 65 63 61 61 61 61 61 61 60 59 59 58 57 56 55 54 54 53 52 51 50 49 48 48 47 46 46 45 46 45 45 43 42 42 42 43 45 46 46 45 44 44 44 44 44 44 44 44 44 45 46 47
82 82 81 80 79 79 79 78 78 78 78 78 78 77 76 75 75 74 74 73 73 73 72 71 71 70 69 68 67 67 67 67 66 64 62 61 60 59 60 60 60 59 58 58 57 56 56 54 53 52 51 50 50 49 48 48 47 46 45 45 45 45 45 44 43 41 41 41 42 43 44 44 44 44 43 43 43 43 43 43 43 44 44 45 45
81 81 80 79 79 79 78 78 78 78 78 78 77 76 75 74 74 73 73 73 72 72 71 70 69 69 68 67 66 66 66 66 65 63 61 60 59 58 58 58 58 58 57 57 56 56 55 54 52 50 49 48 48 47 47 47 46 45 44 44 44 44 44 44 43 41 40 40 41 41 41 42 42 43 42 42 42 42 42 42 42 43 43 43 44
80 80 79 79 78 78 78 79 79 79 78 77 76 75 74 74 73 73 72 72 71 71 70 69 68 67 67 66 65 65 65 64 63 61 60 59 58 57 57 56 56 56 56 55 56 56 55 53 51 48 47 46 46 46 46 46 45 44 43 43 43 43 44 44 43 41 40 40 40 39 39 39 40 41 41 41 41 40 40 41 41 41 41 41 42
80 79 79 78 78 78 78 78 78 78 77 76 75 74 73 72 72 72 71 71 70 70 69 68 67 66 65 65 64 63 63 62 61 60 59 58 57 56 56 54 54 54 54 54 54 54 54 52 50 47 46 45 45 45 45 44 44 43 42 41 42 43 43 43 42 40 39 39 39 39 38 38 38 39 39 39 39 39 39 39 39 40 40 40 40
79 78 78 78 78 78 78 78 77 77 76 74 73 73 72 71 71 71 70 69 69 68 67 66 65 64 64 63 63 62 61 60 59 59 58 57 56 56 54 53 53 53 52 52 53 53 52 51 49 47 45 44 44 44 44 43 43 42 41 40 40 41 42 42 41 40 38 38 38 38 38 37 37 37 38 38 38 38 38 38 38 38 38 39 39
78 78 78 77 77 77 77 76 76 75 74 73 72 71 71 70 70 69 68 68 67 66 66 65 64 63 62 62 61 60 59 58 58 57 57 56 55 54 53 52 52 51 51 51 51 50 50 49 47 46 45 44 43 43 43 42 42 41 41 40 39 39 40 40 40 39 38 37 37 37 37 37 37 37 37 37 37 37 37 37 37 37 37 37 38
78 78 77 76 76 75 75 75 74 73 72 71 70 69 69 68 68 67 67 66 65 64 64 63 62 61 60 59 59 58 58 57 57 56 55 55 54 53 52 51 50 50 50 49 49 48 47 47 46 46 45 44 43 43 42 42 41 41 40 39 38 37 38 38 38 38 37 37 37 37 36 36 36 37 37 37 37 36 36 37 37 36 36 37 37
Wind_Direction
303 305 307 309 311 312 313 314 315 315 315 315 315 315 314 314 313 311 310 308 306 304 303 301 300 299 297 296 295 293 291 289 288 286 284 282 280 279 277 276 275 274 272 271 270 269 269 268 267 266 266 265 265 265 265 265 264 264 264 263 263 262 261 260 259 257 255 254 253 252 252 253 253 254 254 254 254 254 253 253 253 252 252 250 249
305 306 308 311 312 314 314 315 315 315 315 315 315 314 314 313 312 311 309 307 305 303 302 300 299 298 296 295 294 293 291 290 288 286 285 283 281 280 278 277 275 274 273 271 270 270 269 268 268 267 267 266 266 265 265 265 265 265 265 265 264 264 264 263 262 261 259 257 256 255 255 254 253 253 254 255 255 255 255 254 253 253 252 252 251
307 309 311 313 314 315 315 315 315 315 315 315 315 314 313 312 311 309 307 305 304 302 301 299 298 297 296 294 293 292 290 289 287 286 285 283 282 280 279 277 276 274 273 272 271 270 269 268 268 267 267 266 266 266 265 265 265 265 265 265 264 264 264 264 263 262 260 259 258 258 257 256 255 254 255 255 255 255 255 255 255 254 253 253 252
309 311 313 314 315 315 315 315 315 315 315 315 314 313 313 311 310 308 306 304 303 301 300 299 297 296 295 294 292 291 290 288 287 286 285 283 282 280 279 277 276 275 274 273 272 271 270 269 268 267 267 266 266 266 265 265 264 264 264 264 264 264 264 264 264 263 262 260 259 259 258 257 257 256 255 255 256 256 256 256 256 256 255 254 253
310 312 314 315 315 315 314 315 315 315 315 314 314 313 312 310 309 307 305 304 302 301 300 299 297 296 295 294 293 291 290 288 287 286 284 283 281 280 279 277 276 275 274 273 272 271 271 270 269 268 267 267 266 266 265 265 265 265 264 264 264 264 264 264 264 264 263 262 260 259 259 258 257 256 256 255 255 255 255 256 256 256 256 256 255
313 314 315 315 314 314 314 315 315 315 315 314 313 312 311 309 308 306 305 303 302 301 300 299 298 297 295 294 293 291 290 289 287 286 285 283 282 280 279 278 277 276 275 274 273 272 271 270 269 269 268 268 267 267 266 266 266 265 265 265 265 265 265 265 265 264 264 263 262 260 260 259 258 257 257 256 255 254 254 255 255 255 255 255 255
315 315 315 314 314 314 315 315 315 315 314 314 313 311 310 308 307 306 305 303 302 301 300 299 298 297 295 294 293 291 290 289 287 286 285 283 282 281 280 279 278 277 276 275 274 273 272 271 271 270 270 269 269 268 268 267 267 267 267 266 266 266 266 266 266 266 265 264 263 262 261 260 259 258 258 257 256 255 254 254 254 255 255 254 254
315 315 314 314 314 314 315 315 315 315 314 313 312 310 309 308 307 305 304 303 302 301 300 299 298 296 295 293 292 291 289 288 287 286 285 283 283 282 281 280 279 279 278 277 276 275 275 274 273 273 272 271 271 270 270 269 269 269 268 268 268 267 267 267 266 266 266 265 264 263 262 261 260 259 258 257 257 256 255 254 254 254 254 254 254
314 314 314 314 314 315 315 315 315 314 313 312 311 310 308 307 306 305 304 303 302 301 300 299 297 296 294 293 291 290 289 288 287 286 285 284 283 282 281 281 280 280 279 279 278 278 277 277 276 275 275 274 273 272 271 270 270 269 269 269 268 268 267 267 267 266 266 265 265 264 263 262 261 260 259 258 257 256 255 254 253 253 253 254 254
313 313 313 314 314 315 315 315 314 313 312 311 310 309 308 307 306 305 304 303 302 301 300 299 297 296 294 293 292 290 289 288 287 286 285 284 283 283 282 281 280 280 280 280 279 279 279 278 278 277 276 275 275 274 273 272 271 270 270 269 269 268 268 267 266 266 265 265 265 264 263 262 262 261 260 259 258 256 255 254 254 252 252 252 252
313 313 313 314 315 315 315 314 313 312 312 311 309 308 307 306 305 305 304 303 302 301 300 299 297 296 294 293 292 290 289 288 287 286 285 284 283 282 281 280 280 280 279 279 279 279 279 279 278 278 277 277 276 276 275 274 273 272 272 271 270 269 269 268 267 266 265 265 264 264 263 262 262 261 261 260 259 257 256 254 253 253 252 251 251
313 313 314 314 315 314 314 313 313 312 311 310 309 308 307 306 305 305 304 303 302 301 299 298 296 295 294 292 291 290 289 288 287 286 285 284 283 282 281 280 279 279 279 279 279 279 278 278 278 278 278 277 277 277 276 276 275 274 274 273 272 271 270 269 268 267 266 265 265 264 263 262 261 261 260 260 259 258 256 255 254 253 252 251 251
313 313 314 314 314 314 313 313 312 312 311 310 309 308 307 306 306 305 304 303 302 300 299 297 296 295 294 293 292 291 290 288 287 286 285 284 283 282 281 280 280 279 279 278 278 278 278 277 277 277 277 277 277 276 276 276 275 275 275 274 273 272 271 270 269 268 267 266 266 265 264 263 262 261 260 259 258 257 256 255 254 253 252 251 251
313 313 314 314 313 313 313 312 312 311 310 309 308 308 307 306 305 305 304 303 301 300 299 298 296 295 294 293 292 291 290 289 288 287 286 285 284 283 282 281 281 280 279 279 278 278 277 277 277 276 276 276 276 275 275 275 275 275 274 274 273 272 272 271 270 269 268 267 266 266 265 265 263 262 260 259 258 257 256 256 255 254 252 251 251
313 313 313 313 313 313 313 312 311 310 309 309 308 307 307 306 306 305 304 303 301 300 299 298 297 296 295 294 293 292 291 290 289 288 287 286 285 284 283 283 282 281 280 280 279 278 278 277 276 276 276 275 275 275 275 274 274 274 273 273 272 272 272 271 270 269 269 268 267 266 265 265 264 263 261 260 259 258 257 256 255 254 253 252 251
312 313 313 313 312 313 312 311 310 309 309 308 308 307 307 306 306 305 304 302 301 300 300 299 297 296 295 294 293 292 291 291 290 289 288 287 286 286 285 284 283 282 281 281 280 279 278 278 277 276 276 275 275 275 274 274 273 273 273 272 272 272 271 271 270 270 269 269 267 266 265 264 263 262 262 261 260 259 258 257 256 255 253 252 252
312 312 312 312 312 312 311 310 310 309 309 308 308 307 306 306 305 304 303 302 301 300 299 298 297 296 295 294 293 293 292 291 291 290 289 288 287 286 286 285 284 283 282 282 281 280 279 279 278 277 276 275 275 274 274 274 273 272 272 271 271 271 271 271 271 270 270 269 268 267 266 264 263 263 262 261 260 260 259 258 257 255 254 253 252
311 311 312 312 312 311 310 309 309 308 308 307 307 306 306 305 304 303 302 301 300 299 298 297 297 295 294 293 293 292 292 291 291 290 289 288 288 287 287 286 285 285 284 283 282 281 280 279 279 278 277 276 275 275 275 274 273 272 271 271 270 270 270 270 270 270 270 269 268 267 266 265 264 264 263 262 261 260 259 258 257 256 254 253 252
311 311 311 311 310 310 309 309 308 308 307 307 306 305 305 304 303 302 301 300 299 298 297 296 295 294 293 293 292 292 292 291 291 290 289 289 289 288 288 287 287 286 286 285 284 283 282 281 280 278 277 277 276 276 276 275 274 272 271 271 270 270 270 270 270 270 269 269 268 268 267 265 265 264 263 263 262 260 259 257 257 256 255 254 253
311 311 310 310 309 308 308 307 307 307 306 305 305 304 304 303 302 301 300 299 298 297 296 295 295 294 293 292 292 292 292 292 291 291 290 290 290 289 289 288 288 287 287 286 285 284 283 282 281 280 279 278 277 277 276 275 274 273 272 271 271 270 270 270 270 269 269 269 268 268 267 266 265 264 263 263 263 262 261 259 257 256 255 254 253
310 310 309 308 308 307 307 306 306 305 305 304 304 303 302 301 300 300 299 298 297 297 296 295 294 294 293 293 292 293 293 293 292 291 291 291 290 290 289 289 288 287 287 286 285 284 283 282 281 280 280 279 279 277 276 276 275 274 273 272 271 271 271 270 270 270 269 268 268 267 267 266 265 265 264 263 262 262 262 261 259 257 256 255 254
309 308 307 307 306 306 306 305 305 304 304 303 303 302 301 301 300 299 298 298 297 297 296 295 295 294 293 293 293 293 293 293 293 292 292 291 291 290 289 289 288 287 286 286 285 284 283 282 281 281 280 280 279 278 277 276 276 275 274 273 272 271 270 270 270 270 270 269 268 267 267 266 265 265 264 263 262 262 262 261 260 258 257 256 255
307 307 306 306 306 305 305 304 304 303 303 303 302 301 301 300 299 299 298 298 297 297 296 295 295 294 294 294 294 294 294 294 293 293 292 292 291 291 290 289 288 287 287 286 285 285 284 283 282 282 281 280 279 278 277 277 276 275 275 273 272 271 270 269 269 269 269 269 268 268 267 266 265 265 264 264 263 262 261 261 260 259 258 257 256
306 306 306 305 305 305 304 304 303 303 303 302 302 301 300 299 299 298 298 297 297 297 296 296 295 295 295 295 295 295 295 294 293 293 293 293 292 291 290 289 288 288 287 286 285 285 284 283 283 283 282 281 280 279 279 278 277 276 276 275 274 272 271 270 269 269 268 268 268 268 267 267 266 265 265 264 263 262 262 261 260 259 258 257 257
305 305 305 305 304 304 304 303 303 303 302 302 301 300 300 299 298 298 297 297 297 297 296 296 295 295 295 296 295 295 295 294 294 294 294 293 292 291 291 290 289 289 288 287 286 285 284 283 283 282 282 281 281 281 280 280 279 278 277 276 275 274 273 271 270 270 269 268 268 267 267 267 267 266 265 264 263 263 262 261 260 259 258 257 257
305 305 304 304 304 304 303 303 303 303 302 301 301 300 299 299 298 297 297 297 297 296 296 295 295 295 295 295 295 295 294 294 294 294 294 293 292 292 291 291 290 290 289 288 286 285 284 284 283 282 281 281 281 281 281 281 280 280 279 277 276 275 274 273 272 271 270 269 269 268 268 267 267 267 266 266 265 264 263 262 260 259 258 257 257
304 304 303 303 303 303 303 303 303 303 302 301 300 299 299 298 297 297 297 297 296 296 295 295 295 295 295 295 294 294 294 294 294 294 294 293 292 291 290 290 290 290 289 287 286 285 284 283 283 282 281 280 280 280 280 280 280 280 280 279 277 276 275 274 273 272 271 271 270 270 269 268 268 267 267 266 266 265 264 263 261 260 259 257 256
304 303 303 303 303 303 303 303 303 302 301 300 299 299 298 297 297 297 296 296 296 295 295 295 294 294 294 294 294 294 294 294 293 293 293 292 291 290 290 289 289 289 288 287 286 285 284 284 283 282 281 280 279 279 278 278 278 279 279 279 278 276 275 274 273 272 272 271 271 271 270 270 269 269 268 267 266 265 265 263 262 261 260 258 256
303 303 303 303 303 303 303 302 302 301 300 299 298 297 297 296 296 296 296 296 295 295 294 294 293 293 293 293 293 293 293 293 294 293 293 292 291 290 290 289 289 289 288 287 286 286 285 285 284 283 282 281 280 279 278 277 276 276 277 277 277 276 276 275 274 273 272 272 271 271 271 271 270 270 269 268 267 266 264 263 262 261 261 259 258
302 302 302 302 302 302 302 301 300 299 298 297 297 296 296 296 296 295 295 295 294 293 293 293 292 293 293 293 293 293 293 293 293 293 293 292 292 291 290 290 290 289 288 287 286 286 286 286 286 285 284 283 282 280 279 278 277 276 276 276 276 276 276 275 275 274 273 273 272 272 271 271 271 270 269 268 267 266 264 263 262 261 260 259 258
302 302 302 302 302 301 301 300 299 298 297 296 295 295 295 295 295 294 294 293 293 292 292 292 292 292 292 292 292 292 292 292 292 292 292 292 292 291 291 291 291 290 289 288 288 288 288 287 287 287 286 285 284 283 282 280 279 278 277 276 275 275 275 275 275 275 274 274 273 272 271 271 270 270 269 268 267 265 264 262 261 260 259 259 258
301 301 301 301 301 300 300 299 298 297 296 295 295 294 294 294 294 294 293 293 292 292 292 292 292 292 292 292 291 292 292 291 291 292 292 291 290 290 291 292 292 291 291 290 290 290 289 289 288 287 287 286 285 284 284 283 282 280 279 278 277 276 275 274 274 274 274 274 273 272 271 270 269 269 268 267 266 265 264 262 261 259 258 258 258
300 301 301 300 300 299 298 298 297 296 295 295 294 294 294 294 294 294 293 292 292 292 292 292 292 292 292 291 291 291 291 291 291 292 291 291 290 290 291 292 292 292 292 292 292 291 291 290 289 288 287 286 286 285 284 284 283 282 281 280 279 278 276 275 274 273 273 272 272 271 270 269 268 267 266 266 265 265 265 264 263 262 260 259 258
300 300 300 299 298 298 297 296 296 295 295 295 295 294 294 294 294 293 293 292 292 292 292 292 292 292 292 292 292 292 292 291 291 291 291 290 290 290 291 292 292 292 292 292 292 292 291 290 289 288 288 287 286 286 285 284 284 283 282 281 280 279 278 276 275 273 271 270 269 269 268 267 266 265 265 265 265 265 265 265 265 264 263 261 259
299 298 298 297 296 296 296 295 295 295 295 295 295 294 294 294 294 293 293 292 292 292 292 291 291 292 292 292 292 292 292 292 291 291 291 290 290 290 291 291 291 291 292 292 292 291 291 290 289 288 288 287 287 287 286 285 284 284 283 282 281 280 279 277 275 273 271 269 268 267 266 266 265 265 264 264 264 264 265 265 265 265 264 263 261
298 297 296 296 295 295 295 295 295 295 295 295 295 294 294 294 293 293 293 292 292 292 292 292 291 291 291 292 292 292 292 292 292 291 291 290 290 291 291 291 291 291 291 291 291 291 291 290 290 289 288 287 287 286 286 285 285 284 284 283 282 280 279 277 275 274 272 270 268 266 265 264 264 263 263 264 264 264 264 264 264 264 263 262 262
297 296 296 295 295 295 295 295 295 295 295 294 294 294 294 293 293 293 292 292 292 292 292 292 292 292 292 292 293 293 293 293 293 292 292 291 291 291 291 290 291 291 291 291 291 291 291 290 290 289 288 288 287 286 286 285 285 284 284 283 282 280 279 277 275 274 272 271 269 267 266 265 264 263 263 263 263 264 264 263 263 263 263 262 261
297 296 296 296 296 295 295 295 295 294 294 294 294 294 294 293 293 293 293 292 292 292 292 293 293 293 294 294 294 294 294 294 294 293 292 291 291 291 291 290 291 291 291 291 291 291 290 290 289 289 288 288 287 287 286 286 285 284 283 282 281 279 278 276 274 273 272 271 270 269 267 265 264 264 264 264 264 264 263 263 263 263 263 262 261
297 297 296 296 296 296 295 295 295 294 294 294 294 293 293 293 293 293 293 293 293 293 293 293 294 294 295 295 294 294 294 294 294 293 292 291 291 291 290 290 291 291 291 291 291 290 290 289 289 289 288 288 287 287 287 286 286 284 283 282 280 279 277 275 274 273 272 272 271 270 268 267 265 264 263 264 264 264 263 262 262 262 262 262 261
297 297 297 297 296 296 296 296 295 295 294 294 293 293 293 293 293 293 293 293 293 293 294 294 294 294 295 295 294 294 294 293 292 292 291 291 291 291 290 290 291 291 291 291 290 290 289 289 288 288 287 287 287 287 287 286 285 284 282 281 280 278 276 275 274 273 273 272 271 271 270 269 268 266 265 264 263 263 263 263 262 261 261 261 261
297 297 297 297 297 297 297 296 296 295 295 294 294 293 293 293 293 293 294 294 294 294 294 293 294 294 294 294 294 294 293 293 292 291 291 292 291 291 290 290 291 291 291 291 290 290 289 289 288 287 287 287 287 287 286 285 284 283 281 280 279 277 276 275 274 273 273 272 271 270 269 269 269 268 267 266 265 264 263 263 262 261 260 260 260
297 297 297 297 297 298 297 297 296 296 295 295 294 294 294 294 294 294 294 294 294 294 294 294 294 294 294 294 294 294 294 293 292 291 291 291 291 291 290 290 290 290 290 290 290 290 289 288 288 287 287 287 287 287 286 284 283 282 281 279 278 277 275 275 274 274 273 272 271 270 269 269 269 269 268 267 266 265 264 264 263 262 261 260 259
297 297 297 297 298 297 297 297 296 295 295 294 294 293 293 293 294 294 294 294 294 294 294 294 294 294 294 294 294 294 293 292 291 291 291 291 291 290 290 290 289 290 289 289 289 289 289 288 287 287 287 287 287 286 285 284 283 282 281 280 279 278 277 276 275 274 274 273 273 273 272 271 270 270 269 269 268 267 266 265 264 263 262 262 260
297 297 297 297 297 297 296 295 295 294 294 293 293 293 293 294 294 294 294 294 294 294 294 294 294 294 294 294 293 293 292 291 291 291 291 291 290 290 289 289 289 289 289 289 289 288 288 287 287 287 287 287 287 286 285 284 283 282 281 280 279 278 278 277 277 276 274 273 273 273 273 273 273 272 271 270 269 268 267 266 265 263 263 262 262
296 296 297 297 296 295 295 294 294 293 293 292 293 293 294 294 294 294 294 294 294 294 293 293 293 293 293 293 292 291 291 290 290 290 291 290 289 289 289 288 288 288 288 288 288 287 287 287 287 287 286 286 286 285 284 283 282 282 281 280 279 278 277 277 276 275 274 272 271 271 271 272 272 271 270 270 269 268 267 266 265 264 263 262 262
296 296 296 296 295 294 294 293 293 293 292 293 293 294 294 294 294 294 294 293 293 293 292 292 292 292 292 291 291 290 289 289 289 290 290 289 289 288 288 287 288 288 288 287 287 286 286 286 286 286 285 285 284 284 283 282 282 281 280 280 279 278 277 276 275 274 273 271 270 269 269 270 270 270 270 269 268 268 267 266 265 264 263 262 261
296 296 295 295 294 294 293 293 293 293 293 294 294 294 294 294 293 293 293 292 292 292 291 291 291 291 290 290 289 289 288 289 289 289 289 289 288 287 287 287 287 287 287 286 286 285 285 285 285 285 284 283 282 281 281 280 280 280 280 279 279 278 277 277 276 275 274 273 271 270 270 269 269 269 269 269 268 267 267 266 265 265 264 263 262
295 295 294 294 294 293 293 293 293 293 293 294 294 294 293 293 292 292 292 291 291 290 290 290 290 289 289 288 288 288 288 288 289 288 288 287 287 286 286 286 286 285 285 285 285 285 285 285 285 284 283 282 280 279 279 279 279 279 279 278 278 278 278 277 277 276 276 275 274 273 272 270 269 269 269 269 268 268 267 266 266 265 264 264 263
294 294 293 293 293 293 292 292 292 293 293 293 293 293 293 292 291 291 290 290 290 290 289 289 289 289 288 288 288 288 288 288 288 287 287 286 286 286 286 285 285 284 284 284 283 284 284 284 284 283 282 280 279 278 278 278 278 278 277 277 277 277 277 277 278 277 276 276 275 275 274 273 271 270 269 269 269 268 268 267 266 266 265 264 263
293 293 292 292 292 292 292 292 292 292 292 292 292 292 291 290 290 289 289 289 289 289 289 289 288 288 287 287 288 287 287 286 286 285 285 285 285 285 285 285 284 283 283 282 282 282 282 282 282 281 281 279 278 278 277 278 277 277 277 277 277 277 277 278 278 278 278 277 276 275 274 274 273 271 270 270 269 269 268 267 267 266 265 264 263
292 292 292 291 291 291 291 291 291 291 291 291 291 290 290 289 289 289 289 289 288 288 288 288 287 287 287 287 286 286 285 285 285 284 284 285 285 285 284 283 283 282 281 281 281 280 280 281 281 280 280 279 279 278 278 278 278 278 278 278 278 277 277 277 278 278 278 277 276 276 275 274 273 273 272 271 270 269 269 268 267 266 265 264 263
Height
10527 10521 10515 10509 10503 10497 10491 10485 10480 10474 10468 10462 10456 10449 10442 10435 10427 10419 10411 10404 10396 10389 10383 10377 10371 10366 10362 10358 10354 10350 10347 10344 10342 10339 10337 10335 10333 10330 10328 10325 10323 10320 10318 10316 10314 10313 10311 10310 10309 10309 10308 10307 10307 10306 10307 10307 10307 10308 10309 10312 10314 10314 10317 10322 10327 10341 10348 10341 10343 10349 10344 10342 10348 10345 10341 10345 10350 10349 10353 10360 10365 10370 10377 10384 10391
10514 10507 10501 10495 10489 10483 10477 10472 10466 10461 10455 10449 10442 10435 10427 10420 10412 10403 10395 10388 10381 10374 10368 10362 10357 10352 10348 10343 10339 10335 10332 10329 10326 10323 10321 10318 10316 10314 10311 10309 10306 10304 10302 10299 10298 10296 10294 10293 10292 10292 10291 10290 10290 10289 10289 10289 10289 10290 10291 10291 10294 10295 10296 10301 10306 10315 10326 10327 10324 10328 10329 10326 10331 10334 10325 10324 10332 10332 10332 10338 10343 10347 10355 10362 10370
10500 10493 10487 10480 10474 10467 10462 10458 10453 10447 10441 10434 10427 10420 10412 10404 10396 10387 10379 10372 10365 10358 10353 10347 10342 10338 10333 10329 10325 10320 10317 10314 10311 10308 10306 10303 10300 10297 10294 10292 10289 10287 10285 10282 10281 10279 10278 10277 10276 10275 10274 10273 10272 10271 10271 10271 10270 10271 10271 10271 10273 10276 10276 10279 10284 10289 10299 10307 10306 10305 10309 10309 10312 10319 10314 10308 10313 10317 10315 10317 10321 10325 10333 10340 10347
10486 10480 10473 10466 10459 10452 10447 10443 10439 10433 10426 10419 10411 10403 10396 10388 10379 10371 10363 10356 10349 10343 10337 10333 10328 10323 10319 10314 10309 10305 10301 10299 10296 10293 10291 10287 10284 10281 10278 10275 10273 10270 10268 10266 10264 10263 10261 10260 10259 10258 10257 10256 10255 10253 10252 10253 10253 10252 10252 10253 10253 10256 10257 10258 10262 10267 10273 10283 10287 10284 10286 10290 10292 10297 10300 10295 10297 10301 10300 10299 10301 10305 10310 10317 10324
10472 10466 10459 10452 10445 10439 10433 10429 10424 10417 10409 10402 10394 10386 10378 10370 10362 10354 10347 10340 10333 10328 10322 10317 10313 10308 10304 10299 10294 10289 10286 10283 10281 10278 10275 10272 10268 10265 10262 10259 10257 10254 10252 10249 10248 10246 10244 10243 10241 10240 10239 10239 10237 10236 10235 10234 10235 10235 10235 10236 10236 10236 10239 10239 10241 10246 10250 10257 10265 10264 10263 10268 10272 10275 10278 10278 10280 10284 10284 10281 10283 10287 10291 10295 10301
10458 10452 10446 10439 10432 10425 10419 10414 10408 10400 10392 10384 10376 10369 10360 10353 10345 10338 10331 10324 10318 10312 10307 10302 10298 10294 10289 10284 10278 10274 10270 10268 10265 10262 10259 10255 10252 10249 10246 10243 10240 10237 10235 10233 10231 10230 10228 10226 10224 10222 10221 10221 10220 10219 10218 10217 10217 10218 10218 10219 10220 10220 10221 10222 10222 10226 10230 10234 10241 10245 10244 10246 10251 10254 10256 10256 10259 10266 10268 10265 10265 10269 10272 10275 10280
10444 10438 10431 10425 10419 10412 10405 10398 10391 10382 10374 10366 10359 10351 10344 10336 10329 10322 10315 10309 10302 10297 10292 10287 10283 10279 10274 10269 10264 10259 10255 10253 10250 10247 10243 10239 10235 10233 10230 10226 10223 10220 10218 10216 10215 10213 10212 10209 10208 10206 10205 10204 10203 10202 10202 10202 10201 10201 10201 10202 10203 10203 10204 10205 10205 10207 10210 10214 10218 10223 10226 10228 10230 10234 10236 10235 10238 10245 10249 10249 10251 10252 10252 10255 10261
10429 10423 10417 10411 10404 10398 10391 10383 10374 10365 10357 10349 10341 10335 10327 10321 10314 10307 10300 10294 10287 10282 10277 10272 10268 10263 10259 10254 10249 10245 10241 10238 10235 10232 10228 10224 10221 10218 10214 10210 10207 10204 10201 10199 10198 10196 10195 10194 10192 10191 10190 10188 10187 10186 10186 10187 10187 10186 10186 10186 10187 10188 10188 10188 10189 10190 10192 10195 10199 10202 10206 10209 10211 10213 10216 10216 10219 10226 10228 10230 10237 10239 10234 10233 10240
10414 10408 10402 10395 10389 10383 10376 10368 10359 10349 10340 10332 10325 10318 10311 10305 10298 10292 10285 10279 10273 10267 10261 10256 10252 10247 10243 10239 10234 10230 10226 10223 10221 10217 10213 10209 10206 10203 10199 10195 10191 10188 10186 10183 10181 10180 10179 10178 10177 10175 10174 10172 10170 10170 10170 10170 10172 10172 10171 10170 10170 10171 10172 10173 10173 10174 10175 10177 10180 10183 10186 10190 10190 10192 10196 10197 10200 10207 10209 10210 10217 10223 10219 10217 10221
10398 10393 10387 10380 10373 10367 10360 10351 10342 10333 10323 10315 10308 10301 10295 10288 10282 10276 10270 10264 10258 10252 10246 10241 10236 10231 10227 10222 10218 10214 10211 10209 10205 10202 10198 10195 10193 10189 10185 10181 10177 10174 10172 10169 10167 10165 10163 10162 10161 10158 10156 10154 10153 10153 10153 10154 10156 10156 10156 10156 10155 10155 10156 10157 10157 10158 10159 10160 10162 10164 10167 10170 10170 10171 10176 10179 10181 10186 10190 10191 10196 10203 10202 10202 10207
10381 10377 10370 10363 10356 10349 10342 10334 10325 10315 10306 10299 10291 10284 10278 10272 10266 10260 10254 10248 10242 10236 10231 10225 10220 10215 10211 10207 10203 10199 10196 10194 10191 10187 10184 10181 10179 10176 10171 10167 10163 10161 10158 10155 10153 10150 10148 10146 10144 10142 10140 10138 10137 10136 10136 10138 10139 10139 10140 10140 10140 10139 10139 10140 10141 10141 10142 10144 10146 10147 10149 10151 10153 10153 10157 10160 10160 10164 10168 10172 10177 10182 10183 10185 10192
10364 10359 10353 10345 10338 10331 10324 10316 10307 10298 10289 10281 10274 10267 10260 10254 10248 10243 10238 10232 10227 10221 10216 10211 10205 10201 10196 10192 10188 10185 10182 10179 10176 10172 10170 10167 10164 10162 10157 10154 10151 10148 10146 10143 10140 10136 10134 10132 10129 10128 10125 10123 10122 10120 10121 10122 10123 10123 10124 10124 10124 10123 10122 10123 10124 10124 10125 10127 10130 10131 10131 10134 10137 10137 10138 10140 10141 10142 10146 10152 10157 10162 10166 10168 10173
10347 10342 10334 10328 10321 10313 10305 10298 10290 10281 10272 10263 10256 10249 10243 10237 10231 10226 10221 10216 10211 10205 10200 10196 10190 10186 10181 10177 10173 10170 10167 10164 10161 10158 10156 10153 10150 10147 10144 10141 10139 10136 10133 10130 10127 10124 10121 10119 10116 10114 10112 10109 10107 10106 10107 10108 10108 10108 10108 10108 10107 10105 10104 10105 10106 10107 10108 10110 10113 10115 10115 10117 10120 10120 10120 10120 10122 10123 10126 10133 10139 10143 10149 10152 10154
10331 10324 10317 10310 10303 10294 10287 10279 10271 10263 10255 10246 10239 10232 10226 10221 10215 10210 10205 10199 10194 10189 10184 10180 10175 10170 10166 10163 10159 10155 10152 10149 10147 10144 10141 10139 10136 10133 10130 10128 10126 10124 10120 10117 10114 10111 10108 10106 10104 10101 10099 10096 10093 10092 10093 10095 10095 10095 10094 10092 10090 10089 10088 10088 10088 10089 10092 10095 10099 10101 10099 10099 10101 10102 10102 10102 10104 10107 10109 10116 10122 10125 10131 10136 10137
10315 10307 10300 10292 10284 10276 10269 10261 10254 10247 10239 10231 10224 10217 10210 10205 10199 10194 10188 10183 10177 10173 10168 10164 10160 10155 10151 10148 10145 10141 10138 10135 10132 10130 10127 10124 10122 10119 10116 10115 10112 10110 10107 10103 10101 10098 10095 10093 10091 10089 10086 10083 10080 10079 10080 10081 10082 10082 10080 10077 10075 10073 10072 10071 10071 10073 10077 10080 10083 10086 10084 10083 10083 10084 10084 10085 10087 10091 10094 10100 10105 10108 10114 10119 10121
10299 10291 10284 10276 10267 10260 10253 10245 10238 10230 10223 10216 10208 10201 10195 10189 10184 10179 10173 10168 10163 10158 10153 10149 10145 10141 10137 10133 10130 10127 10124 10121 10118 10116 10113 10110 10108 10105 10103 10101 10098 10096 10093 10090 10087 10084 10082 10080 10078 10076 10073 10070 10067 10065 10065 10068 10070 10070 10066 10063 10060 10058 10056 10054 10055 10058 10061 10063 10066 10069 10069 10067 10067 10067 10068 10069 10071 10074 10079 10085 10089 10091 10097 10103 10104
10284 10277 10269 10261 10252 10245 10237 10229 10221 10214 10207 10200 10193 10187 10181 10175 10170 10165 10159 10154 10149 10144 10140 10135 10131 10127 10123 10120 10117 10114 10111 10108 10105 10102 10100 10097 10095 10093 10090 10088 10085 10082 10079 10077 10074 10071 10068 10066 10065 10063 10060 10057 10054 10051 10051 10054 10057 10057 10054 10050 10047 10043 10040 10039 10041 10043 10044 10045 10049 10051 10052 10050 10051 10053 10054 10054 10056 10059 10064 10070 10072 10075 10082 10086 10085
10270 10262 10253 10245 10237 10230 10222 10213 10206 10198 10192 10185 10179 10173 10168 10162 10157 10151 10146 10141 10136 10131 10127 10123 10118 10114 10110 10107 10104 10102 10099 10095 10092 10089 10086 10084 10083 10080 10078 10075 10071 10069 10066 10063 10060 10057 10055 10053 10051 10049 10047 10043 10040 10038 10037 10039 10042 10042 10040 10038 10035 10030 10027 10027 10028 10028 10028 10029 10031 10033 10034 10035 10036 10037 10038 10039 10041 10044 10049 10054 10055 10059 10066 10067 10065
10254 10245 10237 10229 10222 10214 10207 10199 10192 10185 10178 10172 10166 10160 10155 10149 10144 10139 10134 10129 10124 10119 10115 10111 10106 10102 10098 10094 10092 10090 10087 10083 10079 10076 10073 10071 10070 10067 10065 10061 10058 10056 10053 10049 10046 10044 10042 10040 10037 10034 10033 10031 10028 10025 10024 10024 10026 10027 10026 10025 10022 10019 10016 10015 10015 10014 10013 10014 10015 10015 10017 10018 10020 10022 10023 10024 10026 10028 10033 10038 10041 10045 10049 10049 10048
10238 10230 10223 10215 10208 10201 10193 10186 10179 10172 10165 10159 10153 10148 10142 10136 10131 10126 10121 10116 10111 10107 10102 10098 10094 10089 10085 10082 10079 10077 10075 10071 10066 10063 10061 10058 10057 10054 10052 10048 10045 10043 10040 10036 10033 10031 10029 10027 10023 10020 10019 10017 10015 10013 10011 10009 10011 10013 10013 10012 10010 10008 10005 10003 10001 10000 10000 10001 10000 9999 10001 10002 10004 10007 10009 10009 10010 10012 10017 10023 10027 10031 10033 10032 10031
10224 10217 10210 10202 10195 10188 10180 10173 10166 10159 10152 10147 10141 10135 10129 10123 10118 10112 10107 10103 10098 10093 10089 10085 10081 10077 10073 10069 10067 10064 10062 10058 10054 10050 10048 10046 10044 10042 10039 10035 10033 10031 10028 10024 10021 10018 10016 10014 10011 10007 10006 10005 10002 10000 9998 9996 9996 9998 9999 9998 9998 9996 9994 9992 9988 9986 9987 9988 9985 9984 9985 9987 9989 9992 9994 9995 9996 9998 10002 10006 10011 10015 10017 10017 10016
10210 10203 10196 10188 10181 10174 10167 10160 10153 10146 10140 10134 10128 10122 10116 10110 10105 10099 10094 10090 10085 10080 10076 10072 10068 10065 10061 10057 10054 10052 10049 10046 10041 10038 10035 10033 10031 10029 10026 10022 10020 10019 10017 10013 10009 10005 10003 10000 9998 9995 9994 9992 9989 9986 9985 9984 9984 9984 9985 9985 9985 9985 9983 9981 9976 9973 9973 9973 9972 9971 9971 9973 9975 9976 9978 9981 9983 9985 9987 9991 9995 9999 10002 10002 10002
10194 10187 10180 10173 10166 10159 10152 10146 10139 10132 10126 10120 10114 10109 10103 10097 10091 10086 10081 10076 10072 10068 10063 10059 10055 10052 10049 10046 10042 10039 10036 10033 10029 10026 10023 10020 10018 10016 10012 10009 10007 10006 10005 10002 9997 9992 9989 9987 9986 9984 9981 9978 9975 9973 9972 9972 9971 9971 9971 9972 9972 9972 9971 9969 9966 9963 9961 9959 9958 9958 9958 9958 9960 9962 9964 9967 9969 9971 9973 9976 9979 9983 9985 9987 9988
10177 10170 10164 10157 10150 10144 10138 10131 10125 10118 10112 10106 10100 10095 10089 10083 10078 10073 10068 10063 10060 10055 10051 10046 10042 10039 10037 10034 10030 10026 10023 10020 10017 10014 10011 10008 10005 10002 9999 9997 9995 9994 9993 9990 9986 9981 9977 9975 9974 9972 9969 9965 9962 9960 9959 9959 9959 9959 9959 9959 9959 9959 9959 9957 9954 9952 9950 9947 9946 9945 9945 9945 9947 9949 9950 9952 9955 9957 9959 9962 9965 9968 9971 9972 9972
10161 10154 10147 10141 10134 10128 10122 10116 10110 10104 10098 10093 10087 10081 10075 10070 10064 10059 10054 10050 10047 10043 10038 10034 10030 10027 10025 10022 10018 10014 10010 10007 10004 10002 9999 9996 9992 9988 9985 9983 9981 9980 9980 9977 9974 9970 9967 9965 9963 9961 9958 9954 9950 9948 9946 9945 9946 9946 9946 9946 9946 9946 9945 9944 9942 9940 9938 9936 9934 9933 9933 9933 9935 9936 9937 9939 9941 9942 9945 9949 9952 9954 9956 9958 9957
10145 10138 10131 10125 10119 10113 10108 10102 10096 10090 10084 10079 10073 10067 10061 10056 10051 10046 10042 10038 10035 10031 10026 10022 10018 10015 10013 10010 10006 10002 9998 9995 9992 9990 9986 9983 9979 9975 9972 9969 9967 9967 9966 9964 9961 9958 9956 9954 9952 9950 9947 9944 9940 9937 9934 9933 9933 9933 9933 9933 9933 9932 9932 9931 9929 9927 9925 9924 9922 9922 9921 9922 9923 9923 9924 9925 9927 9929 9932 9935 9938 9940 9942 9944 9944
10130 10122 10115 10109 10104 10098 10093 10087 10081 10076 10070 10065 10059 10053 10047 10042 10038 10033 10029 10026 10022 10018 10014 10011 10007 10004 10001 9998 9994 9990 9987 9983 9981 9978 9974 9970 9967 9963 9959 9956 9955 9954 9952 9950 9948 9946 9944 9942 9940 9939 9937 9934 9931 9928 9924 9922 9921 9920 9920 9920 9920 9920 9919 9918 9916 9914 9913 9912 9911 9910 9910 9911 9912 9912 9912 9913 9914 9915 9918 9922 9925 9926 9927 9930 9931
10114 10107 10100 10095 10090 10084 10079 10074 10068 10062 10057 10051 10045 10040 10034 10029 10025 10021 10017 10013 10010 10006 10002 9999 9996 9993 9990 9986 9983 9979 9975 9971 9969 9967 9963 9959 9955 9951 9947 9944 9943 9942 9939 9937 9935 9934 9932 9929 9928 9927 9925 9923 9920 9918 9915 9913 9910 9909 9908 9907 9907 9907 9906 9905 9904 9902 9901 9901 9900 9899 9899 9899 9900 9900 9900 9901 9902 9903 9905 9908 9911 9912 9912 9915 9918
10098 10092 10086 10081 10076 10071 10066 10061 10055 10050 10044 10039 10033 10027 10022 10017 10013 10009 10005 10001 9997 9994 9991 9987 9984 9982 9979 9975 9972 9968 9964 9960 9957 9954 9951 9947 9944 9939 9935 9933 9933 9931 9927 9924 9923 9922 9919 9916 9915 9913 9912 9910 9909 9907 9905 9903 9901 9899 9898 9896 9894 9893 9893 9893 9892 9891 9890 9890 9889 9889 9888 9888 9888 9888 9888 9889 9889 9890 9892 9895 9897 9899 9899 9901 9904
10084 10078 10072 10066 10062 10057 10052 10047 10042 10037 10032 10027 10021 10016 10010 10006 10002 9998 9994 9990 9986 9982 9979 9976 9973 9971 9968 9964 9960 9957 9954 9949 9946 9942 9939 9935 9931 9927 9923 9922 9922 9920 9916 9913 9911 9910 9907 9904 9902 9900 9898 9897 9896 9894 9893 9891 9890 9889 9888 9887 9885 9882 9881 9881 9880 9879 9879 9879 9879 9879 9878 9877 9877 9876 9876 9877 9877 9878 9879 9882 9884 9886 9886 9888 9890
10069 10064 10059 10053 10048 10044 10038 10033 10028 10024 10020 10015 10009 10004 9999 9995 9991 9987 9982 9979 9974 9970 9967 9964 9961 9959 9956 9953 9949 9946 9942 9939 9935 9932 9929 9925 9919 9913 9911 9910 9910 9908 9905 9902 9900 9898 9896 9893 9890 9888 9885 9884 9883 9881 9880 9879 9878 9877 9876 9876 9876 9874 9871 9870 9870 9868 9868 9868 9868 9869 9869 9868 9866 9865 9864 9864 9865 9865 9866 9869 9871 9873 9874 9876 9878
10054 10050 10045 10039 10035 10030 10025 10019 10014 10010 10006 10002 9997 9993 9988 9983 9979 9975 9971 9967 9963 9958 9954 9951 9950 9948 9945 9942 9939 9936 9932 9928 9924 9921 9918 9915 9909 9903 9900 9898 9897 9895 9893 9891 9888 9886 9884 9882 9879 9876 9874 9872 9871 9869 9868 9866 9865 9865 9864 9864 9864 9864 9863 9862 9860 9859 9858 9857 9857 9857 9858 9857 9856 9854 9853 9852 9852 9852 9853 9856 9859 9861 9864 9866 9868
10041 10036 10031 10025 10021 10016 10011 10006 10000 9996 9992 9988 9984 9980 9976 9971 9967 9962 9958 9955 9951 9947 9942 9939 9937 9936 9933 9931 9928 9925 9922 9918 9914 9910 9907 9903 9897 9892 9889 9887 9886 9883 9881 9879 9877 9875 9873 9871 9868 9866 9863 9862 9860 9858 9857 9855 9854 9853 9853 9852 9852 9853 9853 9852 9852 9851 9849 9848 9847 9846 9847 9847 9846 9844 9842 9841 9841 9841 9842 9843 9846 9849 9853 9856 9858
10028 10023 10018 10012 10007 10002 9998 9993 9987 9982 9978 9975 9971 9967 9963 9959 9955 9949 9944 9941 9938 9936 9933 9929 9925 9923 9921 9918 9916 9913 9910 9907 9904 9901 9897 9892 9886 9882 9879 9877 9875 9873 9870 9867 9865 9864 9862 9860 9858 9855 9853 9851 9850 9848 9846 9845 9844 9843 9842 9842 9841 9841 9841 9842 9842 9841 9840 9839 9838 9837 9836 9836 9835 9834 9833 9831 9831 9832 9832 9833 9835 9838 9841 9844 9846
10014 10010 10006 10001 9995 9990 9985 9980 9975 9970 9966 9962 9958 9954 9951 9947 9943 9938 9933 9928 9924 9922 9920 9918 9916 9913 9909 9906 9903 9901 9898 9897 9894 9891 9887 9882 9875 9871 9868 9866 9864 9863 9861 9858 9855 9853 9851 9850 9848 9846 9843 9841 9839 9838 9836 9834 9833 9833 9832 9831 9831 9831 9831 9831 9831 9830 9830 9829 9828 9827 9827 9826 9825 9824 9823 9822 9822 9823 9824 9824 9826 9827 9829 9831 9833
10000 9996 9993 9988 9983 9978 9973 9968 9963 9958 9954 9949 9945 9941 9938 9934 9930 9926 9922 9917 9912 9908 9904 9903 9904 9903 9901 9897 9892 9888 9886 9885 9883 9881 9877 9872 9865 9861 9858 9855 9853 9853 9852 9849 9845 9843 9840 9839 9837 9836 9833 9832 9830 9828 9826 9825 9823 9823 9822 9821 9821 9821 9821 9820 9820 9819 9819 9818 9818 9818 9817 9816 9815 9815 9814 9813 9813 9814 9815 9815 9816 9817 9818 9820 9822
9985 9981 9978 9974 9970 9965 9960 9955 9951 9946 9941 9937 9933 9929 9926 9922 9918 9914 9910 9906 9902 9897 9892 9889 9888 9888 9889 9888 9883 9877 9873 9871 9870 9869 9866 9861 9855 9851 9847 9844 9842 9842 9841 9839 9836 9833 9831 9828 9827 9825 9823 9822 9820 9819 9817 9816 9814 9814 9813 9812 9811 9811 9810 9810 9809 9808 9808 9808 9808 9807 9807 9807 9806 9806 9805 9805 9805 9806 9806 9806 9807 9807 9808 9810 9812
9970 9966 9962 9959 9956 9951 9947 9943 9938 9933 9929 9925 9921 9917 9913 9909 9906 9903 9899 9895 9891 9886 9882 9878 9874 9872 9873 9875 9872 9868 9863 9859 9856 9855 9854 9851 9846 9840 9836 9833 9832 9831 9831 9829 9827 9824 9821 9819 9817 9815 9813 9811 9810 9809 9808 9807 9806 9804 9804 9804 9803 9802 9800 9800 9799 9799 9798 9798 9798 9797 9797 9797 9797 9797 9797 9796 9796 9797 9797 9798 9798 9798 9798 9800 9802
9955 9951 9947 9944 9941 9937 9933 9930 9925 9921 9917 9913 9909 9905 9901 9897 9894 9891 9887 9883 9879 9875 9871 9867 9862 9860 9859 9859 9859 9857 9854 9850 9846 9843 9841 9839 9836 9832 9826 9822 9821 9820 9820 9818 9817 9815 9812 9810 9807 9805 9803 9801 9800 9799 9798 9797 9796 9795 9794 9794 9793 9793 9791 9790 9790 9790 9789 9789 9788 9788 9787 9787 9788 9788 9788 9788 9788 9788 9788 9789 9790 9790 9789 9789 9791
9941 9937 9933 9929 9926 9923 9919 9916 9912 9908 9904 9901 9897 9893 9889 9885 9882 9879 9875 9872 9868 9864 9860 9856 9852 9850 9848 9846 9845 9845 9844 9841 9837 9833 9830 9827 9826 9823 9817 9813 9810 9809 9809 9808 9806 9805 9803 9801 9799 9796 9794 9793 9791 9791 9790 9788 9787 9786 9785 9784 9784 9783 9782 9781 9780 9781 9781 9780 9779 9778 9777 9777 9778 9778 9779 9780 9779 9779 9779 9779 9780 9781 9781 9780 9780
9928 9923 9919 9916 9912 9909 9905 9901 9898 9895 9891 9888 9884 9881 9877 9873 9870 9866 9864 9861 9857 9853 9850 9846 9842 9840 9838 9835 9833 9832 9831 9829 9827 9824 9821 9817 9815 9812 9808 9804 9801 9799 9798 9797 9796 9795 9793 9792 9790 9788 9786 9785 9783 9782 9781 9780 9778 9777 9776 9775 9775 9774 9773 9772 9772 9772 9772 9771 9770 9769 9769 9768 9768 9769 9770 9770 9770 9770 9770 9771 9771 9772 9772 9771 9771
9914 9910 9906 9902 9899 9895 9892 9888 9884 9881 9878 9874 9871 9868 9865 9862 9858 9855 9852 9849 9846 9843 9839 9835 9832 9830 9828 9825 9822 9820 9818 9817 9815 9813 9812 9809 9805 9801 9798 9795 9792 9790 9788 9787 9786 9785 9783 9782 9780 9779 9778 9776 9775 9774 9773 9771 9770 9768 9767 9766 9765 9764 9764 9764 9763 9763 9763 9762 9761 9760 9760 9760 9760 9760 9761 9761 9761 9761 9762 9762 9762 9762 9762 9762 9762
9901 9897 9893 9890 9886 9883 9879 9876 9872 9868 9865 9862 9859 9856 9853 9850 9847 9844 9841 9838 9835 9832 9828 9824 9822 9819 9817 9815 9812 9809 9806 9805 9803 9802 9801 9799 9796 9792 9788 9785 9783 9781 9779 9777 9776 9775 9774 9773 9771 9770 9769 9768 9766 9765 9764 9762 9761 9759 9758 9757 9756 9755 9755 9755 9755 9755 9754 9754 9752 9751 9751 9751 9751 9752 9752 9752 9752 9753 9753 9753 9754 9753 9753 9753 9754
9888 9885 9881 9878 9875 9871 9868 9864 9861 9857 9854 9850 9847 9844 9841 9839 9836 9833 9830 9827 9824 9821 9817 9814 9811 9809 9806 9804 9802 9798 9795 9793 9792 9791 9790 9789 9786 9783 9779 9776 9773 9772 9770 9768 9766 9765 9764 9764 9762 9761 9760 9759 9757 9756 9755 9753 9752 9751 9749 9749 9748 9747 9746 9746 9746 9746 9746 9745 9744 9743 9742 9742 9742 9743 9743 9744 9744 9744 9744 9745 9745 9745 9745 9745 9745
9876 9873 9870 9866 9863 9860 9856 9853 9849 9846 9842 9839 9836 9833 9830 9828 9825 9822 9818 9815 9812 9809 9807 9804 9801 9798 9796 9794 9792 9788 9785 9782 9781 9780 9780 9778 9776 9774 9770 9767 9764 9763 9761 9759 9757 9756 9755 9755 9754 9754 9752 9751 9749 9747 9746 9745 9743 9742 9741 9740 9740 9739 9738 9737 9737 9738 9737 9737 9737 9736 9735 9734 9734 9734 9735 9735 9735 9735 9736 9736 9736 9736 9736 9736 9737
9864 9861 9857 9854 9851 9847 9844 9840 9837 9833 9830 9828 9825 9823 9820 9817 9814 9811 9807 9804 9802 9799 9796 9793 9791 9788 9786 9783 9781 9778 9775 9772 9771 9770 9769 9768 9766 9764 9762 9759 9756 9754 9752 9750 9748 9746 9746 9746 9746 9746 9745 9743 9742 9740 9738 9736 9735 9734 9733 9732 9731 9731 9730 9729 9729 9730 9729 9729 9729 9728 9728 9727 9727 9726 9726 9727 9727 9727 9727 9727 9727 9728 9728 9728 9728
9853 9849 9846 9842 9839 9835 9832 9828 9824 9821 9819 9816 9814 9812 9809 9805 9802 9800 9797 9794 9791 9788 9785 9783 9781 9778 9775 9773 9771 9769 9766 9763 9761 9760 9758 9757 9756 9754 9752 9751 9748 9746 9744 9742 9739 9738 9737 9737 9737 9738 9737 9736 9734 9732 9730 9729 9728 9727 9726 9725 9723 9723 9722 9721 9721 9721 9721 9721 9720 9720 9720 9720 9719 9719 9718 9718 9719 9719 9719 9719 9719 9719 9719 9720 9720
9841 9837 9834 9831 9827 9824 9820 9817 9813 9810 9808 9805 9803 9800 9797 9794 9791 9789 9786 9783 9780 9777 9775 9772 9770 9768 9765 9762 9760 9759 9756 9754 9752 9750 9748 9747 9746 9744 9743 9742 9740 9738 9736 9734 9731 9730 9728 9728 9728 9728 9728 9727 9726 9725 9723 9722 9721 9720 9719 9718 9717 9715 9714 9713 9713 9713 9713 9712 9712 9712 9712 9712 9712 9711 9711 9711 9711 9711 9711 9711 9711 9711 9711 9712 9712
9829 9826 9823 9819 9816 9812 9809 9805 9802 9799 9797 9795 9792 9789 9786 9783 9781 9778 9775 9772 9770 9767 9764 9762 9760 9757 9755 9752 9750 9748 9746 9744 9742 9740 9739 9737 9736 9735 9734 9733 9731 9730 9728 9726 9724 9722 9721 9720 9720 9719 9719 9719 9718 9717 9716 9715 9714 9713 9712 9711 9710 9709 9707 9706 9705 9705 9705 9705 9704 9704 9704 9704 9704 9704 9704 9703 9703 9703 9703 9703 9703 9703 9704 9704 9704
9817 9814 9811 9808 9805 9802 9798 9794 9791 9789 9786 9784 9781 9778 9775 9772 9769 9766 9764 9762 9759 9756 9754 9751 9749 9747 9745 9742 9740 9738 9736 9735 9733 9731 9729 9728 9727 9726 9725 9724 9723 9721 9720 9719 9717 9715 9713 9712 9711 9711 9710 9710 9710 9709 9708 9708 9707 9706 9705 9704 9704 9702 9700 9699 9698 9698 9697 9697 9697 9697 9696 9696 9696 9696 9696 9696 9696 9696 9696 9695 9696 9696 9696 9696 9697
9806 9803 9800 9797 9794 9791 9787 9784 9781 9778 9776 9773 9771 9768 9765 9761 9758 9756 9753 9751 9748 9746 9744 9741 9739 9737 9735 9733 9730 9728 9726 9725 9723 9722 9720 9719 9718 9717 9716 9715 9714 9713 9712 9710 9709 9708 9706 9705 9704 9703 9702 9701 9701 9701 9700 9700 9699 9698 9697 9696 9696 9696 9694 9692 9691 9691 9690 9690 9690 9689 9689 9689 9689 9689 9689 9689 9689 9689 9689 9688 9688 9689 9689 9689 9689